Regional Weather Roundup
Issued by NWS Sioux Falls, SD

Home | Current Version | Previous Version | Text Only | Print | Product List | Glossary On
Versions: 1 2 3 4 5 6 7 8 9 10 11 12 13 14 15 16 17 18 19 20 21 22 23 24 25 26 27 28 29 30 31 32 33 34 35 36 37 38 39 40 41 42 43 44 45 46 47 48 49 50
000
ASUS43 KFSD 231710
RWRFSD

WEATHER ROUNDUP FOR SE SOUTH DAKOTA/SW MINNESOTA/NW IOWA
NATIONAL WEATHER SERVICE SIOUX FALLS SD
1200 PM CDT TUE MAY 23 2017

NOTE: "FAIR" INDICATES FEW OR NO CLOUDS BELOW 12,000 FEET WITH NO
SIGNIFICANT WEATHER AND OR OBSTRUCTIONS TO VISIBILITY.


SDZ038>040-050-052>070-231800-
SOUTHEAST SOUTH DAKOTA

CITY           SKY/WX    TMP DP  RH WIND       PRES   REMARKS
BROOKINGS      CLOUDY    51  45  79 N15       29.89F
CHAMBERLAIN    CLOUDY    52  42  68 NW16G24   30.00S
HURON          CLOUDY    53  45  74 N18G25    29.95S
MADISON        LGT RAIN  48  48 100 N16       29.91S
MITCHELL       CLOUDY    53  44  71 N18       29.95S
SIOUX FALLS    LGT RAIN  52  47  83 N9        29.89F
WINNER         CLOUDY    50  45  83 N16       30.03R
YANKTON        CLOUDY    53  46  77 NW16      29.91F
$$

MNZ071-072-080-081-089-090-097-098-231800-
SOUTHWEST MINNESOTA

CITY           SKY/WX    TMP DP  RH WIND       PRES   REMARKS
FAIRMONT       LGT RAIN  49  45  86 NW12      29.83F
JACKSON        CLOUDY    52  43  71 N12G17    29.84S
LUVERNE        LGT RAIN  52  41  66 N14       29.88S
MARSHALL       RAIN      48  46  93 N16       29.87S
MONTEVIDEO     RAIN      50  48  93 NE9       29.87S
PIPESTONE      CLOUDY    52  41  66 N8G18     29.87F
REDWOOD FALLS  CLOUDY    54  45  71 VRB7      29.84F
TRACY          CLOUDY    51  48  89 N12       29.86F
WINDOM         MOSUNNY   54  45  71 N13       29.84F
WORTHINGTON    CLOUDY    50  45  81 N16       29.86S
$$

IAZ001>003-012>014-020>022-031-032-NEZ013-014-SDZ071-231800-
NORTHWEST IOWA

CITY           SKY/WX    TMP DP  RH WIND       PRES   REMARKS
CHEROKEE       PTSUNNY   55  47  74 NW9G17    29.85F
DENISON        CLOUDY    55  46  71 NW13G18   29.87S
ESTHERVILLE    PTSUNNY   54  47  77 N17G24    29.83F
LE MARS        CLOUDY    54  46  76 NW13      29.89S
ORANGE CITY    LGT RAIN  48  46  93 N7        29.87S
SHELDON        CLOUDY    52  45  76 N14G21      N/A
SIOUX CITY     LGT RAIN  50  47  89 N15       29.89S
SPENCER        PTSUNNY   55  46  71 NW13      29.84F
STORM LAKE       N/A     54  45  71 N17       29.85S
$$

ABBREVIATIONS USED IN REMARKS
   TC - TEMPERATURE IN CELSIUS
  WCI - WIND CHILL INDEX
   HX - HEAT INDEX
  VSB - VISIBILITY





USA.gov is the U.S. government's official web portal to all federal, state and local government web resources and services.